Content
SEND FEEDBACK

Daily
Averages
Monthly
Summary
United States of America

NEVADA CITY, CALIFORNIA


Home > North America > United States > California
Elevation: 2934 feet     Latitude: 39 18N     Longitude: 121 00W

WEATHER
 
SELECT A DAY
Number of Records: 62,444;   Date Range: 9/21/11 - 9/15/14
 
SHARE

PRINT THIS DATA

[ ← Previous Day ]
WEATHER ALMANAC - APRIL 5, 2013
[ Next Day → ]
[ °C ]   °F
Weather ElementAverageHighLow
Temperature49.8 °F55.4 °F (12:55 pm)44.6 °F (7:15 am)
Dewpoint45.9 °F48.2 °F (12:35 am)42.8 °F (4:55 pm)
Humidity87.5 %100 % (12:35 am)63 % (4:55 pm)
Barometer30.14 in30.17 in (11:55 pm)30.11 in (1:15 am)
Wind Speed3.1 mph8.1 mph (11:35 am)
Weather ElementAverage
Visibility6.8 mi
Wind DirectionESE (108.6 °)

Weather ElementTotal
Precipitation---
Heating Degree Days15 (Base 65)
Averaged from 71 records on April 5, 2013
WEATHER CONDITIONS BREAKOUT
WIND DIRECTION BREAKOUT
WEATHER BY HOUR - APRIL 5, 2013
[ °C ]   °F
Local TimeTemperatureDewpointHumidityBarometerVisibilityWind DirectionWind SpeedGust SpeedPrecipitationEventsConditions
12:35 AM48.2 °F48.2 °F100 %30.12 in0.5 miSSE (150°)5.8 mphOvercast
12:55 AM48.2 °F48.2 °F100 %30.12 in0.5 miSE (140°)4.6 mphOvercast
1:15 AM48.2 °F48.2 °F100 %30.11 in0.2 miSE (140°)5.8 mphOvercast
1:35 AM48.2 °F48.2 °F100 %30.12 in0.5 miSE (130°)5.8 mphOvercast
1:55 AM48.2 °F48.2 °F100 %30.12 in0.5 miSE (140°)4.6 mphOvercast
2:15 AM48.2 °F48.2 °F100 %30.13 in0.2 miCalmOvercast
2:35 AM48.2 °F48.2 °F100 %30.12 in0.5 miCalmOvercast
2:55 AM48.2 °F48.2 °F100 %30.12 in0.2 miSSW (210°)4.6 mphOvercast
3:15 AM48.2 °F48.2 °F100 %30.12 in0.2 miCalmOvercast
3:35 AM46.4 °F46.4 °F100 %30.12 in1.5 miCalmOvercast
3:55 AM46.4 °F46.4 °F100 %30.12 in1.0 miSouth (180°)3.5 mphOvercast
4:15 AM46.4 °F46.4 °F100 %30.13 in0.2 miCalmOvercast
4:35 AM46.4 °F46.4 °F100 %30.13 in0.2 miSSE (150°)4.6 mphOvercast
4:55 AM46.4 °F46.4 °F100 %30.13 in0.8 miSouth (170°)3.5 mphOvercast
5:15 AM46.4 °F46.4 °F100 %30.13 in1.5 miSSE (150°)3.5 mphOvercast
5:35 AM46.4 °F46.4 °F100 %30.13 in0.8 miSSE (160°)3.5 mphOvercast
5:55 AM46.4 °F46.4 °F100 %30.12 in0.2 miSSE (150°)3.5 mphOvercast
6:15 AM46.4 °F46.4 °F100 %30.12 in0.2 miSE (140°)4.6 mphOvercast
6:35 AM46.4 °F46.4 °F100 %30.12 in0.2 miSSE (150°)4.6 mphOvercast
6:55 AM46.4 °F46.4 °F100 %30.12 in0.2 miESE (120°)4.6 mphOvercast
7:15 AM44.6 °F44.6 °F100 %30.12 in0.8 miSSE (160°)6.9 mphOvercast
7:35 AM44.6 °F44.6 °F100 %30.13 in1.0 miSE (140°)5.8 mphOvercast
7:55 AM46.4 °F46.4 °F100 %30.13 in0.2 miSSE (150°)5.8 mphOvercast
8:15 AM44.6 °F44.6 °F100 %30.14 in5.0 miSE (140°)5.8 mphOvercast
8:35 AM46.4 °F46.4 °F100 %30.14 in7.0 miSE (140°)6.9 mphOvercast
8:55 AM46.4 °F46.4 °F100 %30.15 in9.0 miSSE (150°)6.9 mphOvercast
9:15 AM46.4 °F46.4 °F100 %30.15 in10.0 miSSE (150°)5.8 mphOvercast
9:35 AM46.4 °F46.4 °F100 %30.16 in10.0 miCalmOvercast
9:55 AM46.4 °F46.4 °F100 %30.15 in10.0 miSSE (150°)3.5 mphOvercast
10:15 AM48.2 °F46.4 °F93 %30.15 in10.0 miCalmOvercast
10:35 AM50.0 °F46.4 °F87 %30.15 in10.0 miSSE (150°)6.9 mphOvercast
10:55 AM50.0 °F46.4 °F87 %30.15 in10.0 miSSE (160°)4.6 mphMostly Cloudy
11:15 AM51.8 °F46.4 °F82 %30.16 in10.0 miCalmMostly Cloudy
11:35 AM51.8 °F46.4 °F82 %30.16 in10.0 miSSW (210°)8.1 mphMostly Cloudy
11:55 AM53.6 °F46.4 °F77 %30.16 in10.0 miCalmMostly Cloudy
12:15 PM51.8 °F44.6 °F76 %30.16 in10.0 miSW (220°)4.6 mphMostly Cloudy
12:35 PM53.6 °F46.4 °F77 %30.16 in10.0 miWSW (240°)3.5 mphMostly Cloudy
12:55 PM55.4 °F44.6 °F67 %30.16 in10.0 miSouth (170°)3.5 mphMostly Cloudy
1:15 PM55.4 °F44.6 °F67 %30.16 in10.0 miSSE (160°)3.5 mphPartly Cloudy
1:35 PM55.4 °F46.4 °F72 %30.15 in10.0 miSouth (180°)4.6 mphScattered Clouds
1:55 PM55.4 °F44.6 °F67 %30.15 in10.0 miWSW (250°)3.5 mphScattered Clouds
2:15 PM55.4 °F44.6 °F67 %30.15 in10.0 miSW (220°)4.6 mphMostly Cloudy
2:35 PM55.4 °F44.6 °F67 %30.15 in10.0 miSW (230°)6.9 mphMostly Cloudy
2:55 PM55.4 °F44.6 °F67 %30.15 in10.0 miSW (230°)8.1 mphMostly Cloudy
3:15 PM53.6 °F46.4 °F77 %30.14 in10.0 miSSW (200°)4.6 mphMostly Cloudy
3:35 PM55.4 °F44.6 °F67 %30.14 in10.0 miSW (230°)4.6 mphMostly Cloudy
3:55 PM55.4 °F44.6 °F67 %30.14 in10.0 miWSW (250°)6.9 mphMostly Cloudy
4:15 PM55.4 °F44.6 °F67 %30.14 in10.0 miSW (220°)5.8 mphScattered Clouds
4:35 PM53.6 °F44.6 °F72 %30.13 in10.0 miCalmScattered Clouds
4:55 PM55.4 °F42.8 °F63 %30.12 in10.0 miSSW (210°)6.9 mphMostly Cloudy
5:15 PM53.6 °F42.8 °F67 %30.13 in10.0 miSouth (170°)3.5 mphScattered Clouds
5:35 PM53.6 °F42.8 °F67 %30.14 in10.0 miCalmMostly Cloudy
5:55 PM53.6 °F42.8 °F67 %30.14 in10.0 miSSW (200°)4.6 mphMostly Cloudy
6:15 PM53.6 °F44.6 °F72 %30.13 in10.0 miCalmOvercast
6:35 PM51.8 °F44.6 °F76 %30.13 in10.0 miCalmMostly Cloudy
6:55 PM51.8 °F44.6 °F76 %30.13 in10.0 miCalmOvercast
7:15 PM50.0 °F44.6 °F82 %30.13 in10.0 miCalmOvercast
7:35 PM50.0 °F44.6 °F82 %30.12 in10.0 miCalmOvercast
7:55 PM50.0 °F44.6 °F82 %30.13 in10.0 miCalmMostly Cloudy
8:15 PM50.0 °F46.4 °F87 %30.12 in10.0 miCalmOvercast
8:35 PM50.0 °F46.4 °F87 %30.13 in10.0 miCalmOvercast
8:55 PM48.2 °F46.4 °F93 %30.14 in10.0 miCalmOvercast
9:15 PM50.0 °F46.4 °F87 %30.15 in10.0 miCalmOvercast
9:35 PM50.0 °F46.4 °F87 %30.16 in10.0 miCalmOvercast
9:55 PM48.2 °F46.4 °F93 %30.16 in10.0 miCalmOvercast
10:15 PM48.2 °F46.4 °F93 %30.16 in10.0 miCalmOvercast
10:35 PM48.2 °F46.4 °F93 %30.15 in10.0 miSouth (170°)3.5 mphOvercast
10:55 PM48.2 °F46.4 °F93 %30.16 in10.0 miCalmOvercast
11:15 PM48.2 °F46.4 °F93 %30.16 in10.0 miSouth (180°)3.5 mphOvercast
11:35 PM48.2 °F46.4 °F93 %30.16 in9.0 miCalmOvercast
11:55 PM48.2 °F46.4 °F93 %30.17 in9.0 miCalmOvercast
Hourly data recorded from KGOO, located miles away from Nevada City, California







STORIES FROM OUR PARTNERS